This demonstration page uses our WeatherBlox Daily Observations layout. Learn more.

39.01783, -85.05884

Hourly Observations for February 23, 2020

Temp ( °F °C ) Dew Point ( °F °C ) Humidity (%) Winds ( mph kmh ) Pressure ( in mb ) Visibility ( mi km ) Precip ( " mm )
12:52 am 00:52 Clear 33 0.6 14 -10 45 45 SSW 8 13 30.23 1024 10 16.0934 0 0
1:52 am 01:52 Clear 33 0.6 14 -10 45 45 SSW 7 11 30.21 1023 10 16.0934 0 0
2:52 am 02:52 Clear 29 -1.7 16 -8.9 58 58 S 8 13 30.21 1023 10 16.0934 0 0
3:52 am 03:52 Clear 30 -1.1 16 -8.9 56 56 S 8 13 30.19 1022 10 16.0934 0 0
4:52 am 04:52 Clear 30 -1.1 16 -8.9 56 56 S 6 9 30.18 1022 10 16.0934 0 0
5:52 am 05:52 Mostly Clear 29 -1.7 17 -8.3 61 61 S 8 13 30.19 1022 10 16.0934 0 0
6:52 am 06:52 Partly Cloudy 30 -1.1 17 -8.3 58 58 S 10 17 30.18 1022 10 16.0934 0 0
7:52 am 07:52 Mostly Cloudy 32 0 18 -7.8 56 56 S 12 19 30.17 1022 10 16.0934 0 0
8:52 am 08:52 Cloudy 36 2.2 19 -7.2 50 50 S 9 15 30.18 1022 10 16.0934 0 0
9:52 am 09:52 Cloudy 38 3.3 19 -7.2 46 46 SSW 12 19 30.16 1022 10 16.0934 0 0
10:52 am 10:52 Cloudy 42 5.6 21 -6.1 43 43 SSW 13 20 30.15 1021 10 16.0934 0 0
11:52 am 11:52 Cloudy 45 7.2 22 -5.6 40 40 SSW 12 19 30.14 1021 10 16.0934 0 0
12:52 pm 12:52 Cloudy 48 8.9 23 -5 37 37 SSW 10 17 30.12 1020 10 16.0934 0 0
1:52 pm 13:52 Cloudy 50 10 23 -5 35 35 SSW 10 17 30.08 1019 10 16.0934 0 0
2:52 pm 14:52 Cloudy 51 10.6 22 -5.6 32 32 SSW 9 15 30.08 1019 10 16.0934 0 0
3:52 pm 15:52 Mostly Cloudy 52 11.1 22 -5.6 31 31 S 12 19 30.06 1018 10 16.0934 0 0
4:52 pm 16:52 Mostly Cloudy 53 11.7 22 -5.6 30 30 SSW 13 20 30.05 1018 10 16.0934 0 0
5:52 pm 17:52 Mostly Cloudy 53 11.7 23 -5 31 31 SSW 6 9 30.05 1018 10 16.0934 0 0
6:52 pm 18:52 Partly Cloudy 49 9.4 21 -6.1 33 33 SSW 6 9 30.05 1018 10 16.0934 0 0
7:52 pm 19:52 Mostly Clear 43 6.1 23 -5 45 45 S 8 13 30.06 1018 10 16.0934 0 0
8:52 pm 20:52 Clear 40 4.4 24 -4.4 53 53 S 8 13 30.06 1018 10 16.0934 0 0
9:52 pm 21:52 Clear 41 5 25 -3.9 53 53 S 6 9 30.05 1018 10 16.0934 0 0
10:52 pm 22:52 Partly Cloudy 42 5.6 26 -3.3 53 53 S 7 11 30.04 1017 10 16.0934 0 0
11:52 pm 23:52 Partly Cloudy 42 5.6 27 -2.8 55 55 SSW 7 11 30.03 1017 10 16.0934 0 0

Powered by AerisWeather